         **** Don't distribute anyone except personal use only ****

                (C) Copyright 2004 OAA/ComputingSection

write mail from CFAD0::NAKANO on 2004-10-04 01:08:29(JST).

 





    C/2003 S4-B (LINEAR)                                                  

Epoch 2004 June 4.0 TT = JDT 2453160.5  

T 2004 May 26.62386 TT                                  Nakano

q   3.8588920            (2000.0)            P               Q

z  +0.0254233      Peri.  154.45155     +0.87264659     -0.17321302

 +/-0.0000043      Node   224.55170     +0.25499511     +0.95901862

e   0.9018941      Incl.   40.60532     +0.41649180     -0.22423324

P 246.5 years

From 136 observations 2003 Sept. 26-2004 Sept. 25, mean residual 0".53.

NAKANO

         **** Don't distribute anyone except personal use only ****

                (C) Copyright 2004 OAA/ComputingSection

write mail from CFAD0::NAKANO on 2004-10-04 01:08:29(JST).

 





◎C/2003 S4の軌道と予報位置です



  スペインのマンテカによると,この彗星の再観測がフェランドによって,

9月24日と25日に行なわれ,この彗星が分裂していることを観測しました.

核Aの核光度は20.5等,核Bの核光度は21.0等級とのことです.現在,核B

は,核Aより,およそ,8”ほど東に位置しています.下の予報にある光度

は,HICQ 2004からのもので,彗星は,この予報より暗いのでしょう.



    C/2003 S4-A (LINEAR)                                                  

Epoch 2004 June 4.0 TT = JDT 2453160.5  

T 2004 May 26.61435 TT                                  Nakano

q   3.8589729            (2000.0)            P               Q

z  +0.0254254      Peri.  154.44950     +0.87265656     -0.17317097

 +/-0.0000042      Node   224.55104     +0.25495181     +0.95902910

e   0.9018839      Incl.   40.60556     +0.41649742     -0.22422088

P 246.4 years

From 136 observations 2003 Sept. 26-2004 Sept. 25, mean residual 0".52.





    C/2003 S4-B (LINEAR)                                                  

Epoch 2004 June 4.0 TT = JDT 2453160.5  

T 2004 May 26.62386 TT                                  Nakano

q   3.8588920            (2000.0)            P               Q

z  +0.0254233      Peri.  154.45155     +0.87264659     -0.17321302

 +/-0.0000043      Node   224.55170     +0.25499511     +0.95901862

e   0.9018941      Incl.   40.60532     +0.41649180     -0.22423324

P 246.5 years

From 136 observations 2003 Sept. 26-2004 Sept. 25, mean residual 0".53.

 

Date/        TT  R.A.(2000) Decl.     Delta   r     Daily motion  Mag.  Moon Age

              h    h  m       。  ,                      ,  / PA 。  m1      。

2004 Sept.25 18  03 16.49  +21 33.4   3.266  3.990     8.1 / 190  17.6   86  .90

          26 18  03 16.39  +21 25.4   3.257  3.992     8.3 / 191  17.6   72  .96

          27 18  03 16.28  +21 17.3   3.248  3.994     8.4 / 192  17.6   58  .99

          28 18  03 16.15  +21 09.1   3.239  3.996     8.6 / 194  17.6   44 1.00

          29 18  03 16.01  +21 00.7   3.231  3.998     8.7 / 195  17.6   31  .98

          30 18  03 15.85  +20 52.3   3.222  4.000     8.9 / 196  17.6   18  .95

     Oct.  1 18  03 15.67  +20 43.7   3.214  4.002     9.1 / 197  17.6    5  .89

           2 18  03 15.48  +20 35.1   3.206  4.005     9.2 / 198  17.6    7  .82

           3 18  03 15.28  +20 26.3   3.199  4.007     9.4 / 199  17.6   20  .74

           4 18  03 15.06  +20 17.4   3.191  4.009     9.6 / 200  17.6   32  .66

           5 18  03 14.82  +20 08.4   3.184  4.011     9.7 / 201  17.5   44  .56

           6 18  03 14.57  +19 59.4   3.177  4.014     9.9 / 202  17.5   56  .47

           7 18  03 14.31  +19 50.2   3.171  4.016    10.1 / 203  17.5   68  .38

           8 18  03 14.04  +19 40.9   3.164  4.018    10.2 / 204  17.5   80  .28

           9 18  03 13.75  +19 31.5   3.158  4.020    10.4 / 204  17.5   92  .20

          10 18  03 13.45  +19 22.0   3.152  4.023    10.5 / 205  17.5  105  .13

          11 18  03 13.13  +19 12.5   3.146  4.025    10.7 / 206  17.5  118  .07

          12 18  03 12.81  +19 02.8   3.141  4.027    10.8 / 206  17.5  131  .02

          13 18  03 12.47  +18 53.1   3.136  4.030    11.0 / 207  17.5  145  .00

          14 18  03 12.12  +18 43.3   3.131  4.032    11.1 / 207  17.5  159  .01

          15 18  03 11.76  +18 33.4   3.126  4.034    11.3 / 208  17.5  173  .03

          16 18  03 11.39  +18 23.4   3.122  4.037    11.4 / 208  17.5  172  .09

          17 18  03 11.01  +18 13.4   3.118  4.039    11.5 / 209  17.5  158  .17

          18 18  03 10.62  +18 03.3   3.114  4.042    11.7 / 209  17.5  143  .26

          19 18  03 10.22  +17 53.1   3.111  4.044    11.8 / 210  17.5  129  .37

          20 18  03 09.81  +17 42.9   3.108  4.047    11.9 / 210  17.5  114  .48

          21 18  03 09.39  +17 32.6   3.105  4.049    12.0 / 210  17.5  100  .59

          22 18  03 08.97  +17 22.3   3.102  4.052    12.1 / 211  17.5   86  .70

          23 18  03 08.54  +17 11.9   3.100  4.054    12.2 / 211  17.5   72  .80

          24 18  03 08.10  +17 01.5   3.098  4.057    12.3 / 211  17.5   59  .88

          25 18  03 07.66  +16 51.0   3.096  4.059    12.3 / 212  17.5   45  .94

          26 18  03 07.21  +16 40.5   3.095  4.062    12.4 / 212  17.5   32  .98

          27 18  03 06.75  +16 30.0   3.094  4.064    12.5 / 212  17.5   19 1.00

          28 18  03 06.29  +16 19.5   3.093  4.067    12.5 / 212  17.5    6 1.00

          29 18  03 05.82  +16 08.9   3.093  4.069    12.6 / 213  17.5    7  .97

          30 18  03 05.36  +15 58.3   3.093  4.072    12.6 / 213  17.5   19  .93

          31 18  03 04.88  +15 47.7   3.093  4.075    12.6 / 213  17.6   32  .88

     Nov.  1 18  03 04.41  +15 37.1   3.094  4.077    12.7 / 213  17.6   44  .81

NAKANO

         **** Don't distribute anyone except personal use only ****

                (C) Copyright 2004 OAA/ComputingSection

write mail from CFAD0::NAKANO on 2004-09-25 23:42:11(JST).

 

    C/2003 S4 (LINEAR)                                                    

Epoch 2004 June 4.0 TT = JDT 2453160.5  

T 2004 May 26.61953 TT                                  Nakano

q   3.8588744            (2000.0)            P               Q

z  +0.0254516      Peri.  154.44946     +0.87264491     -0.17320490

 +/-0.0000218      Node   224.55312     +0.25497954     +0.95902505

e   0.9017855      Incl.   40.60476     +0.41650485     -0.22421200

P 246 years

From 130 observations 2003 Sept. 26-2004 Jan. 5, mean residual 0".51.



NAKANO

         **** Don't distribute anyone except personal use only ****

                (C) Copyright 2004 OAA/ComputingSection

write mail from CFAD0::NAKANO on 2004-01-21 21:27:50(JST).

 



    C/2003 S4 (LINEAR)                                                    

T 2004 May 26.70978 TT                                  Nakano

q   3.8583584            (2000.0)            P               Q

z  +0.0253045      Peri.  154.47016     +0.87256312     -0.17360499

 +/-0.0000790      Node   224.55752     +0.25538432     +0.95892717

e   0.9023661      Incl.   40.60140     +0.41642820     -0.22432117

From 114 observations 2003 Sept. 26-Nov. 17.



NAKANO

         **** Don't distribute anyone except personal use only ****

                (C) Copyright 2003 OAA/ComputingSection

write mail from CFAD0::NAKANO on 2003-12-14 18:52:00(JST).

 

    C/2003 S4 (LINEAR)                                                    

T 2004 May  26.67508 TT                                 Nakano

q   3.8585388            (2000.0)            P               Q

z  +0.0253764      Peri.  154.45894     +0.87258147     -0.17347942

 +/-0.0000994      Node   224.56027     +0.25523394     +0.95897155

e   0.9020842      Incl.   40.60037     +0.41648196     -0.22422859

P 247 years

From 109 observations 2003 Sept. 26-Nov. 17.

NAKANO

         **** Don't distribute anyone except personal use only ****

                (C) Copyright 2003 OAA/ComputingSection

write mail from CFAD0::NAKANO on 2003-11-20 02:00:59(JST).

 



◎C/2003 S4の軌道です



 久万の中村彰正氏の10月17日の観測が報告されました.氏の CCD全光度は,

18.5等で,氏の観測は,以前の軌道(9月26日〜10月2日)から赤経方向で

-2",赤緯方向で +34"を示しました.軌道改良の結果,彗星は,軌道長半径

a=40 AUを動く,周期が 250年ほどの長周期彗星でした.最近,その周期が

200年〜300年ほどの彗星が多く発見されますが,この程度の短い周期をもつ

長周期彗星も多数存在しているのでしょう.



    C/2003 S4 (LINEAR)                                                    

T 2004 May  26.81872 TT                                 Nakano

q   3.8580828            (2000.0)            P               Q

z  +0.0251678      Peri.  154.50141     +0.87253689     -0.17388506

 +/-0.0006234      Node   224.54559     +0.25574444     +0.95881262

e   0.9029007      Incl.   40.60572     +0.41626212     -0.22459375

P 250 years

From 80 observations 2003 Sept. 26-Oct. 17.

 

Date/        TT  R.A.(2000) Decl.     Delta   r     Daily motion  Mag.  Moon Age

              h    h  m       。  ,                      ,  / PA 。  m1      。

2003 Oct. 15 12  21 26.58  +30 16.3   3.672  4.278    10.1 / 166  18.1   97  .78

          16 12  21 26.77  +30 06.5   3.676  4.274    10.1 / 165  18.1  105  .69

          17 12  21 26.97  +29 56.8   3.680  4.271    10.2 / 164  18.1  112  .60

          18 12  21 27.19  +29 47.0   3.684  4.267    10.3 / 162  18.1  120  .50

          19 12  21 27.43  +29 37.2   3.688  4.264    10.3 / 161  18.1  126  .40

          20 12  21 27.68  +29 27.4   3.693  4.261    10.4 / 160  18.1  131  .30

          21 12  21 27.95  +29 17.6   3.697  4.257    10.5 / 159  18.1  133  .21

          22 12  21 28.24  +29 07.8   3.702  4.254    10.6 / 158  18.1  133  .13

          23 12  21 28.54  +28 58.1   3.707  4.250    10.6 / 157  18.1  129  .06

          24 12  21 28.87  +28 48.3   3.712  4.247    10.7 / 155  18.1  123  .02

          25 12  21 29.20  +28 38.6   3.717  4.244    10.8 / 154  18.1  115  .00

          26 12  21 29.56  +28 28.9   3.722  4.240    10.8 / 153  18.1  105  .01

          27 12  21 29.93  +28 19.2   3.728  4.237    10.9 / 152  18.1   95  .06

          28 12  21 30.32  +28 09.5   3.734  4.233    11.0 / 151  18.1   84  .13

          29 12  21 30.72  +27 59.9   3.739  4.230    11.1 / 150  18.1   74  .21

          30 12  21 31.14  +27 50.4   3.745  4.227    11.2 / 149  18.1   65  .32

